Location: *
(50.0228°S, 177.2688°W)
Time: 08:47:55
(UTC+00:00)

YAOGAN 1 - Pass Details

Date: 07 April 2020
Orbit: 618 x 620 km, 97.9° (Epoch: 01 June)

Event Time Altitude Azimuth Distance (km) Brightness Sun altitude
Rises 07:48:01 0° 169° (S) 2,943 6.1 -23.9°
Reaches altitude 10° 07:50:15 10° 173° (S) 2,028 5.3 -24.2°
Maximum altitude 07:54:36 60° 251° (WSW) 728 3.1 -24.9°
Drops below altitude 10° 07:58:54 10° 331° (NNW) 2,002 5.2 -25.6°
Sets 08:01:05 0° 334° (NNW) 2,900 6.1 -25.9°
